Flag for China Weather past 2 weeks in Suzhou, Jiangsu, China

Now
52 °F

Clear.


Feels Like: 47 °F
Forecast: 42 / 56 °F
Wind: 15 mph from Southeast

Location: Shanghai Hongqiao Airport

Current Time: Mar 2, 2015 at 4:01:19 PM

Latest Report: Mar 2, 2015 at 3:30 PM


Visibility: 4 mi

Pressure: 30.01 "Hg

Humidity: 54%

Dew point: 36 °F

Location of SuzhouLocation

Historic Weather in Suzhou — Graph

°F

Suzhou temperature yesterday

Maximum temperature yesterday: 50 °F (at 1:30 PM)
Minimum temperature yesterday: 37 °F (at 3:00 AM)
Average temperature yesterday: 43 °F

Past Weeks' High & Low Weather Summary

 TemperatureHumidityPressure
High66 °F (Feb 15, 4:00 PM)100% (Feb 21, 2:30 AM)30.42 "Hg (Feb 21, 2:30 AM)
Low34 °F (Feb 19, 4:00 AM)29% (Feb 17, 3:00 PM)29.89 "Hg (Feb 15, 3:30 PM)
Average47 °F76%30.17 "Hg
* Reported Feb 15 3:00 PM — Mar 2 3:00 PM, Suzhou, Weather by CustomWeather, © 2015

Note: Actual official high and low records may vary slightly from our data, if they occured in-between our weather recording intervals... More about our weather records

Advertising

Suzhou weather history for previous 24 hours

 ConditionsComfort  
Time TempWeatherWind HumidityBarometerVisibility
3:00 PM
Mon, Mar 2
52 °FClear.13 mph50%30.01 "Hg4 mi
2:30 PM52 °FClear.15 mph47%30.01 "Hg4 mi
2:00 PM54 °FClear.13 mph41%30.04 "Hg4 mi
1:30 PM52 °FClear.15 mph44%30.07 "Hg4 mi
1:00 PM52 °FClear.13 mph41%30.07 "Hg4 mi
12:30 PM54 °FClear.13 mph41%30.09 "Hg4 mi
12:00 PM52 °FClear.10 mph41%30.12 "Hg4 mi
11:30 AM54 °FClear.10 mph41%30.15 "Hg4 mi
11:00 AM52 °FClear.13 mph47%30.15 "Hg4 mi
10:30 AM50 °FClear.10 mph54%30.15 "Hg4 mi
10:00 AM48 °FHaze.6 mph62%30.18 "Hg3 mi
9:30 AM48 °FHaze.8 mph62%30.21 "Hg3 mi
9:00 AM45 °FHaze.8 mph71%30.18 "Hg2 mi
8:30 AM45 °FFog.3 mph76%30.21 "Hg2 mi
8:00 AM43 °FFog.3 mph81%30.21 "Hg2 mi
7:30 AM41 °FFog.1 mph87%30.21 "Hg2 mi
7:00 AM37 °FFog.3 mph87%30.21 "Hg2 mi
6:30 AM37 °FFog.1 mph87%30.18 "Hg2 mi
6:00 AM37 °FFog.1 mph87%30.18 "Hg3 mi
5:30 AM37 °FClear.1 mph93%30.21 "Hg4 mi
5:00 AM37 °FClear.3 mph87%30.21 "Hg4 mi
4:30 AM37 °FClear.1 mph87%30.18 "Hg4 mi
4:00 AM37 °FClear.3 mph93%30.21 "Hg4 mi
3:30 AM39 °FClear.1 mph87%30.21 "Hg4 mi
3:00 AM39 °FClear.1 mph87%30.21 "Hg4 mi
2:30 AM39 °FClear.1 mph87%30.21 "Hg4 mi
2:00 AM41 °FClear.1 mph81%30.24 "Hg4 mi
1:30 AM43 °FClear.1 mph76%30.24 "Hg4 mi
1:00 AM43 °FClear.1 mph76%30.24 "Hg4 mi
12:30 AM41 °FClear.1 mph81%30.27 "Hg4 mi
12:00 AM43 °FClear.1 mph76%30.24 "Hg4 mi
11:30 PM
Sun, Mar 1
43 °FClear.1 mph76%30.27 "Hg4 mi
11:00 PM43 °FClear.No wind76%30.27 "Hg4 mi
10:30 PM43 °FClear.3 mph76%30.27 "Hg4 mi
10:00 PM43 °FClear.3 mph76%30.27 "Hg4 mi
9:30 PM45 °FClear.3 mph71%30.27 "Hg4 mi
9:00 PM45 °FClear.3 mph71%30.27 "Hg4 mi
8:30 PM45 °FClear.6 mph71%30.30 "Hg4 mi
8:00 PM45 °FClear.3 mph71%30.27 "Hg4 mi
7:30 PM45 °FClear.6 mph71%30.30 "Hg4 mi
7:00 PM45 °FClear.8 mph66%30.30 "Hg4 mi
6:30 PM45 °FClear.6 mph71%30.27 "Hg4 mi
6:00 PM46 °FClear.8 mph66%30.27 "Hg4 mi
5:30 PM46 °FClear.8 mph66%30.27 "Hg4 mi
5:00 PM48 °FClear.8 mph54%30.27 "Hg4 mi
4:30 PM48 °FPassing clouds.8 mph54%30.27 "Hg4 mi
4:00 PM48 °FPassing clouds.8 mph54%30.27 "Hg4 mi
Weather by CustomWeather, © 2015

See weather overviewHow to use our weather pages